Simultaneous Nadir Overpasses (SNOs) Predictions

Prediction of SNOs between FY3D and LANDSAT-8 Satellite Orbit:

Table of predicted SNOs for the next 14.0 days since TLE Epoch: 5/18/2024
Index Date (FY3D) Time (FY3D) Lat,Lon (FY3D) SZA (FY3D ) Date (LANDSAT-8) Time (LANDSAT-8) Lat,Lon (LANDSAT-8) SZA (LANDSAT-8 ) Distance(km) Time Diff (sec)
1 05/20/2024 16:30:10 74.39, -64.11 54.17 05/20/2024 16:30:55 74.40, -64.06 54.19 1.95 45
2 05/20/2024 17:20:53 -74.31, 103.42 125.91 05/20/2024 17:20:24 -74.33, 103.41 125.90 2.28 29
3 05/23/2024 07:56:52 -74.41,-115.77 126.33 05/23/2024 07:57:57 -74.39,-115.84 126.34 2.45 65
4 05/23/2024 08:47:37 74.36, 51.66 53.62 05/23/2024 08:47:23 74.36, 51.73 53.62 2.04 14
5 05/23/2024 09:38:09 -73.74,-139.44 126.96 05/23/2024 09:37:02 -73.78,-141.97 127.00 78.79 67
6 05/25/2024 23:23:41 74.72,-168.27 53.50 05/25/2024 23:24:51 74.62,-167.04 53.43 37.85 70
7 05/26/2024 00:14:19 -74.39, -0.04 126.83 05/26/2024 00:14:23 -74.40, 0.06 126.81 3.30 4
8 05/26/2024 01:05:03 74.30, 167.51 53.09 05/26/2024 01:03:50 74.31, 167.50 53.09 1.23 73
9 05/28/2024 15:41:01 74.39, -51.67 52.75 05/28/2024 15:41:20 74.42, -51.65 52.77 2.38 19
10 05/28/2024 16:31:45 -74.34, 115.78 127.31 05/28/2024 16:30:49 -74.35, 115.83 127.31 1.87 56
11 05/31/2024 07:07:42 -74.45,-103.44 127.59 05/31/2024 07:08:17 -74.45,-103.32 127.59 3.60 35
12 05/31/2024 07:58:26 74.37, 64.08 52.34 05/31/2024 07:57:44 74.36, 64.10 52.31 2.18 42



Historial Predications of SNOs between FY3D and LANDSAT-8
